[[{"header":{"parameterUnit":"m.s-1","parameterCategory":1,"la1":30.2991,"la2":30.254,"lo1":-89.0895,"lo2":-89.0444,"dy":0.0017,"dx":0.0017,"nx":28,"ny":28,"refTime":"2026-01-10T09:00:00:Z","depth":0,"parameterNumber":2,"parameterNumberName":"U-component_of_WINDS"},"data":[0,0,0,0,0,0,0,0,0,0,0,0,0,0,0,0,0,0,0,0,0,0,0,0,0,0,0,0,0,0,0,0,0,0,0,0,0,0,0,0,0,0,0,0,0,0,0,0,0,0,0,0,0,0,0,0,0,0,1.7524,1.7523,0,1.7508,1.7508,1.7508,1.7546,1.7547,1.7548,1.7549,1.7529,1.7527,1.7525,0,0,0,0,0,0,0,0,0,0,0,0,0,1.7586,1.7584,1.7524,1.7523,1.7523,1.7508,1.7508,1.7508,1.7545,1.7547,1.7548,1.755,1.7529,1.7527,1.7525,0,0,0,0,0,0,0,0,0,0,0,0,0,1.7563,1.7584,1.7524,1.754,1.7542,1.7508,1.7508,1.7508,1.7545,1.7547,1.7549,1.755,1.753,1.7528,1.7525,1.7473,0,0,1.7517,1.7516,0,0,0,0,0,0,0,0,1.7564,1.7561,1.7538,1.7539,1.7541,1.7531,1.7522,1.7496,1.7545,1.7544,1.7549,1.7551,1.7528,1.7525,1.7518,1.7472,1.7471,1.7517,1.7516,1.7515,1.7514,0,0,0,0,0,0,0,1.7566,1.7562,1.7517,1.7538,1.7539,1.7549,1.7547,1.7518,1.7525,1.7544,1.7547,1.7545,1.7529,1.7521,1.7518,1.7471,1.7517,1.7515,1.7513,1.7512,1.7387,1.7385,0,0,0,0,0,0,1.7566,1.7563,1.7518,1.7517,1.7557,1.7546,1.7545,1.7532,1.7526,1.7527,1.7543,1.7546,1.7524,1.7521,1.7518,1.746,1.7515,1.7512,1.7511,1.7389,1.7387,1.7385,0,0,0,0,0,0,1.7567,1.7561,1.7518,1.7541,1.7536,1.7543,1.7528,1.7531,1.7523,1.7525,1.7527,1.7533,1.7525,1.7521,1.7486,1.746,1.7511,1.7509,1.7391,1.7388,1.7386,1.7342,0,0,0,0,0,0,1.7568,1.7561,1.7541,1.754,1.7535,1.7486,1.7527,1.7529,1.7519,1.7523,1.7517,1.7517,1.7527,1.7489,1.7483,1.7457,1.7507,1.7393,1.739,1.7387,1.7346,1.7338,1.7331,0,0,0,0,0,1.7571,1.7528,1.754,1.7535,1.751,1.7485,1.7482,1.7494,1.7517,1.7497,1.75,1.7518,1.7464,1.7485,1.7479,1.7451,1.7395,1.7391,1.7387,1.7349,1.7339,1.7332,0,0,0,0,0,0,1.7523,1.7527,1.7541,1.7497,1.7491,1.7491,1.7466,1.7483,1.7469,1.7473,1.7489,1.7487,1.7449,1.7447,1.747,1.7404,1.7433,1.7428,1.7406,1.7398,1.7391,1.7392,1.7505,0,0,0,0,0,1.7508,1.7487,1.7492,1.7452,1.7449,1.7459,1.7448,1.7459,1.7452,1.7449,1.7449,1.7441,1.7423,1.741,1.7393,1.7346,1.7347,1.7325,1.7317,1.7312,1.7306,1.7286,1.7277,1.7371,1.7371,1.7371,0,0,1.7474,1.7475,1.746,1.7443,1.7439,1.7419,1.7456,1.7431,1.7416,1.7445,1.7412,1.7412,1.7405,1.7365,1.7347,1.7361,1.7281,1.7306,1.7302,1.73,1.7281,1.7272,1.7264,1.7368,1.7369,1.7369,0,0,1.7405,1.7402,1.7371,1.7368,1.7363,1.7371,1.7364,1.7363,1.7365,1.7333,1.7356,1.7339,1.7306,1.7301,1.7294,1.7229,1.7246,1.7223,1.7185,1.7165,1.7158,1.7151,1.713,1.7123,1.7218,1.7218,1.7218,0,1.7364,1.7334,1.7352,1.7328,1.7321,1.7349,1.7319,1.7314,1.7304,1.7298,1.7316,1.7279,1.7275,1.7237,1.7222,1.7214,1.7208,1.7223,1.7158,1.7151,1.7145,1.7126,1.7118,1.7215,1.7216,1.7216,1.7216,0,1.7286,1.7266,1.7241,1.7234,1.7224,1.7196,1.7211,1.7199,1.7212,1.7218,1.7188,1.7186,1.7171,1.7163,1.7173,1.7126,1.7136,1.7155,1.7185,1.7134,1.7116,1.7108,1.7212,1.7212,1.7213,1.7214,0,0,1.7182,1.7189,1.718,1.7179,1.7179,1.7164,1.7139,1.7127,1.7118,1.7111,1.7092,1.7066,1.7086,1.7078,1.7089,1.7071,1.7024,1.7093,1.7093,1.7082,1.6976,1.6962,1.6953,1.7036,1.7035,1.7033,1.6977,0,1.7115,1.7074,1.7092,1.7049,1.7033,1.7063,1.7042,1.704,1.7046,1.7033,1.7039,1.7022,1.7048,1.7044,1.7028,1.7033,1.7003,1.7037,1.7019,1.7018,1.7021,1.6943,1.6928,1.6875,1.697,1.6969,1.6968,0,1.703,1.7024,1.6981,1.6989,1.6983,1.6963,1.6957,1.6943,1.6943,1.6949,1.6944,1.6961,1.6939,1.6969,1.694,1.6963,1.6957,1.6959,1.6957,1.6956,1.699,1.6942,1.6858,1.685,1.6957,1.6958,1.6958,0,1.6962,1.6942,1.6915,1.6913,1.6921,1.6908,1.691,1.6912,1.6905,1.6899,1.6896,1.6886,1.6881,1.6874,1.6889,1.6909,1.6858,1.6889,1.6864,1.6863,1.6851,1.6851,1.6766,1.6845,1.6845,1.6846,1.6846,0,1.6885,1.6858,1.6885,1.6868,1.684,1.6862,1.6833,1.6839,1.6841,1.6827,1.6851,1.6837,1.6857,1.6846,1.6857,1.6833,1.6829,1.6835,1.6838,1.6833,1.6833,1.6829,1.6834,1.6843,1.6844,1.6844,1.6845,0,1.6803,1.682,1.6793,1.6805,1.6807,1.6786,1.6796,1.6782,1.6792,1.6774,1.6771,1.6786,1.6774,1.6789,1.6777,1.6785,1.6753,1.6761,1.6753,1.6756,1.6731,1.6734,1.6641,1.6631,1.6715,1.6714,1.6713,0,1.6753,1.6734,1.6745,1.6739,1.6741,1.6729,1.6725,1.6746,1.674,1.6742,1.6728,1.6719,1.6713,1.6693,1.6702,1.6695,1.6704,1.6672,1.6702,1.67,1.6706,1.6707,1.6707,1.6665,1.6664,1.6664,1.6663,0,1.6664,1.6675,1.6668,1.6665,1.666,1.6658,1.6657,1.665,1.6674,1.6666,1.6656,1.6652,1.6643,1.6634,1.663,1.6633,1.6652,1.6654,1.6648,1.6642,1.664,1.6644,1.6738,1.6655,1.6656,1.6657,1.6657,1.6657,1.6598,1.6584,1.6592,1.6584,1.6588,1.6588,1.6577,1.6588,1.658,1.6576,1.659,1.6578,1.6582,1.658,1.6581,1.6572,1.6585,1.6576,1.6574,1.6571,1.6569,1.6642,1.6571,1.6571,1.6571,1.6571,1.6572,0,1.6512,1.652,1.6513,1.6515,1.651,1.6532,1.6534,1.6528,1.6518,1.6521,1.6517,1.6507,1.65,1.6512,1.6507,1.6498,1.6508,1.6496,1.6498,1.6499,1.6555,1.6562,1.649,1.649,1.649,1.649,1.649,1.649,1.6467,1.6446,1.6459,1.6441,1.6449,1.6439,1.6439,1.6441,1.6444,1.6434,1.6429,1.6438,1.6446,1.6443,1.6439,1.6442,1.644,1.6426,1.6433,1.6486,1.6494,1.6502,1.6508,1.6425,1.6425,1.6377,1.6377,1.6377]},{"header":{"parameterUnit":"m.s-1","parameterCategory":1,"la1":30.2991,"la2":30.254,"lo1":-89.0895,"lo2":-89.0444,"dy":0.0017,"dx":0.0017,"nx":28,"ny":28,"refTime":"2026-01-10T09:00:00:Z","depth":0,"parameterNumber":3,"parameterNumberName":"V-component_of_WINDS"},"data":[0,0,0,0,0,0,0,0,0,0,0,0,0,0,0,0,0,0,0,0,0,0,0,0,0,0,0,0,0,0,0,0,0,0,0,0,0,0,0,0,0,0,0,0,0,0,0,0,0,0,0,0,0,0,0,0,0,0,0.855,0.8552,0,0.8706,0.8708,0.8709,0.8765,0.8764,0.8764,0.8763,0.8922,0.8927,0.8932,0,0,0,0,0,0,0,0,0,0,0,0,0,0.8299,0.8304,0.855,0.8552,0.8554,0.8705,0.8708,0.871,0.8765,0.8764,0.8763,0.8763,0.8921,0.8926,0.8932,0,0,0,0,0,0,0,0,0,0,0,0,0,0.8427,0.8305,0.855,0.86,0.8606,0.8705,0.8708,0.871,0.8765,0.8764,0.8763,0.8762,0.8919,0.8926,0.8933,0.8994,0,0,0.8955,0.8958,0,0,0,0,0,0,0,0,0.8419,0.8436,0.859,0.8596,0.8603,0.8715,0.8678,0.8805,0.8765,0.8704,0.8763,0.8762,0.8854,0.8866,0.8897,0.9001,0.9008,0.8955,0.896,0.8963,0.8965,0,0,0,0,0,0,0,0.8411,0.843,0.8612,0.8592,0.86,0.8614,0.8631,0.8702,0.8782,0.871,0.8714,0.8732,0.8857,0.889,0.8902,0.901,0.8955,0.8961,0.8966,0.8969,0.9173,0.9174,0,0,0,0,0,0,0.8393,0.8422,0.8607,0.8616,0.8507,0.8619,0.8638,0.868,0.8781,0.8796,0.8732,0.8734,0.8879,0.8893,0.8907,0.8987,0.8963,0.8969,0.8973,0.9172,0.9173,0.9175,0,0,0,0,0,0,0.8388,0.8409,0.86,0.852,0.8546,0.8624,0.8671,0.8683,0.8717,0.8799,0.8813,0.8752,0.8878,0.8897,0.8972,0.8993,0.8973,0.8979,0.9171,0.9172,0.9174,0.9145,0,0,0,0,0,0,0.838,0.8407,0.8431,0.852,0.855,0.8663,0.8672,0.8687,0.8729,0.8732,0.882,0.8834,0.8879,0.8961,0.8979,0.9003,0.8985,0.9169,0.9171,0.9173,0.9145,0.9146,0.9147,0,0,0,0,0,0.8371,0.8417,0.8432,0.8454,0.8582,0.8664,0.8681,0.8732,0.873,0.8755,0.8808,0.8831,0.8987,0.8968,0.8989,0.9015,0.9168,0.9171,0.9173,0.9144,0.9146,0.9147,0,0,0,0,0,0,0.8328,0.843,0.8448,0.8524,0.8585,0.8673,0.8706,0.8731,0.8794,0.8794,0.8855,0.8874,0.8945,0.8987,0.8964,0.908,0.9079,0.9086,0.905,0.9052,0.9053,0.9042,0.8991,0,0,0,0,0,0.8327,0.8386,0.8471,0.853,0.8559,0.8627,0.8665,0.8699,0.8765,0.8791,0.8849,0.8911,0.8975,0.9015,0.9078,0.915,0.9171,0.9178,0.9179,0.9179,0.9185,0.9228,0.9233,0.9183,0.9183,0.9183,0,0,0.8327,0.8389,0.8423,0.8523,0.8574,0.8633,0.8649,0.8711,0.8755,0.88,0.8875,0.8919,0.8993,0.9067,0.9103,0.9105,0.9203,0.9183,0.9182,0.9188,0.9231,0.9236,0.924,0.9185,0.9184,0.9184,0,0,0.8357,0.8409,0.8464,0.8515,0.8593,0.8637,0.865,0.8735,0.8766,0.8842,0.8877,0.8931,0.9038,0.909,0.913,0.9178,0.9202,0.9196,0.9202,0.9243,0.9247,0.9251,0.927,0.9276,0.9201,0.9201,0.9201,0,0.8346,0.8437,0.8489,0.855,0.8593,0.8636,0.8692,0.8739,0.8833,0.8861,0.8862,0.8998,0.905,0.9138,0.915,0.918,0.9198,0.9188,0.9242,0.9246,0.9251,0.927,0.9276,0.92,0.92,0.92,0.92,0,0.8421,0.8483,0.8518,0.8609,0.8655,0.8713,0.8774,0.8815,0.8844,0.8889,0.8965,0.903,0.9107,0.9129,0.9158,0.9221,0.922,0.923,0.9231,0.9254,0.9272,0.928,0.9198,0.9199,0.9199,0.9199,0,0,0.843,0.8548,0.856,0.8602,0.8689,0.8739,0.8798,0.8873,0.8908,0.897,0.9023,0.9112,0.9122,0.9168,0.9202,0.9238,0.9274,0.9244,0.9247,0.9249,0.9349,0.9342,0.935,0.9289,0.9291,0.9292,0.9343,0,0.8473,0.8582,0.8631,0.8718,0.8777,0.8817,0.8869,0.8929,0.8971,0.9027,0.9074,0.9138,0.9145,0.9173,0.921,0.9261,0.9295,0.9258,0.934,0.9342,0.9323,0.9359,0.9353,0.9399,0.9351,0.9352,0.9353,0,0.8538,0.8602,0.8695,0.8776,0.8803,0.8849,0.8922,0.8974,0.9042,0.9071,0.9121,0.9154,0.9219,0.9213,0.9303,0.9277,0.9313,0.9343,0.9346,0.9358,0.9351,0.9374,0.9414,0.9422,0.9364,0.9364,0.9363,0,0.8538,0.8646,0.8716,0.875,0.8846,0.8878,0.8919,0.8987,0.9029,0.9092,0.912,0.919,0.9228,0.9281,0.9333,0.9323,0.9418,0.9417,0.9445,0.9444,0.9466,0.9464,0.9514,0.9484,0.9484,0.9484,0.9483,0,0.8582,0.8638,0.8718,0.8761,0.8825,0.8879,0.8941,0.8985,0.9045,0.9098,0.9135,0.9184,0.9248,0.9304,0.9344,0.9414,0.943,0.9456,0.9467,0.9454,0.9451,0.9481,0.948,0.9485,0.9485,0.9485,0.9484,0,0.8594,0.8649,0.8729,0.8813,0.8836,0.8879,0.8951,0.8995,0.9039,0.9105,0.9124,0.9193,0.9262,0.9317,0.9407,0.9434,0.9507,0.9518,0.9485,0.9491,0.9517,0.9515,0.959,0.9604,0.9561,0.9561,0.9562,0,0.862,0.8665,0.8753,0.8792,0.8833,0.8893,0.8937,0.8991,0.9035,0.9115,0.9149,0.9221,0.9281,0.9389,0.9448,0.9516,0.9531,0.9552,0.9541,0.9528,0.9534,0.9532,0.9538,0.9554,0.9554,0.9554,0.9555,0,0.8661,0.8686,0.8748,0.8818,0.8869,0.8927,0.8986,0.9015,0.908,0.9127,0.9198,0.9245,0.9336,0.9407,0.9482,0.9525,0.9552,0.9557,0.9568,0.9557,0.9538,0.9551,0.9491,0.9556,0.9556,0.9556,0.9555,0.9555,0.8683,0.8725,0.8794,0.8861,0.8911,0.8965,0.9011,0.906,0.912,0.92,0.9227,0.9301,0.9368,0.9471,0.9514,0.9572,0.9575,0.959,0.9594,0.9598,0.9598,0.9525,0.9586,0.9586,0.9586,0.9586,0.9586,0,0.8728,0.8775,0.8835,0.8917,0.897,0.8988,0.9055,0.9098,0.9162,0.9222,0.928,0.9362,0.9431,0.9494,0.9566,0.9601,0.9615,0.9618,0.9618,0.9628,0.959,0.9575,0.9606,0.9606,0.9606,0.9606,0.9606,0.9606,0.8758,0.883,0.8863,0.8961,0.9006,0.9079,0.9115,0.9166,0.9214,0.9304,0.9361,0.9402,0.9464,0.954,0.9604,0.9621,0.9647,0.9648,0.9668,0.9632,0.963,0.9627,0.9614,0.9652,0.9652,0.9702,0.9702,0.9702]}]]